Year,Month,Day,Hour,Minute,Value (Times are PST for windspeed in km/hr)
2016,03,09,00,00,6.10
2016,03,09,00,01,5.60
2016,03,09,00,02,4.90
2016,03,09,00,03,3.10
2016,03,09,00,04,7.20
2016,03,09,00,05,6.10
2016,03,09,00,06,10.40
2016,03,09,00,07,7.30
2016,03,09,00,08,8.30
2016,03,09,00,09,10.00
2016,03,09,00,10,5.60
2016,03,09,00,11,4.50
2016,03,09,00,12,7.30
2016,03,09,00,13,6.00
2016,03,09,00,14,6.60
2016,03,09,00,15,3.00
2016,03,09,00,16,8.40
2016,03,09,00,17,8.10
2016,03,09,00,18,5.70
2016,03,09,00,19,5.60
2016,03,09,00,20,5.40
2016,03,09,00,21,2.10
2016,03,09,00,22,1.90
2016,03,09,00,23,6.90
2016,03,09,00,24,5.20
2016,03,09,00,25,8.70
2016,03,09,00,26,6.70
2016,03,09,00,27,2.70
2016,03,09,00,28,8.00
2016,03,09,00,29,6.90
2016,03,09,00,30,4.90
2016,03,09,00,31,3.30
2016,03,09,00,32,3.50
2016,03,09,00,33,11.50
2016,03,09,00,34,7.60
2016,03,09,00,35,7.70
2016,03,09,00,36,6.10
2016,03,09,00,37,3.10
2016,03,09,00,38,8.30
2016,03,09,00,39,4.90
2016,03,09,00,40,4.90
2016,03,09,00,41,3.30
2016,03,09,00,42,7.30
2016,03,09,00,43,4.30
2016,03,09,00,44,3.00
2016,03,09,00,45,7.50
2016,03,09,00,46,5.70
2016,03,09,00,47,5.60
2016,03,09,00,48,4.50
2016,03,09,00,49,4.00
2016,03,09,00,50,3.80
2016,03,09,00,51,6.10
2016,03,09,00,52,7.40
2016,03,09,00,53,3.90
2016,03,09,00,54,3.80
2016,03,09,00,55,6.30
2016,03,09,00,56,10.60
2016,03,09,00,57,7.30
2016,03,09,00,58,8.80
2016,03,09,00,59,6.80
2016,03,09,01,00,9.20
2016,03,09,01,01,13.60
2016,03,09,01,02,4.40
2016,03,09,01,03,8.30
2016,03,09,01,04,10.70
2016,03,09,01,05,7.20
2016,03,09,01,06,5.20
2016,03,09,01,07,11.80
2016,03,09,01,08,7.60
2016,03,09,01,09,13.10
2016,03,09,01,10,17.50
2016,03,09,01,11,12.10
2016,03,09,01,12,7.90
2016,03,09,01,13,16.10
2016,03,09,01,14,10.60
2016,03,09,01,15,10.50
2016,03,09,01,16,8.30
2016,03,09,01,17,8.60
2016,03,09,01,18,8.20
2016,03,09,01,19,8.30
2016,03,09,01,20,8.00
2016,03,09,01,21,11.30
2016,03,09,01,22,11.10
2016,03,09,01,23,11.40
2016,03,09,01,24,8.10
2016,03,09,01,25,12.00
2016,03,09,01,26,6.60
2016,03,09,01,27,5.40
2016,03,09,01,28,5.30
2016,03,09,01,29,4.00
2016,03,09,01,30,10.20
2016,03,09,01,31,4.50
2016,03,09,01,32,8.90
2016,03,09,01,33,6.90
2016,03,09,01,34,6.40
2016,03,09,01,35,13.00
2016,03,09,01,36,11.70
2016,03,09,01,37,11.90
2016,03,09,01,38,8.00
2016,03,09,01,39,10.20
2016,03,09,01,40,8.60
2016,03,09,01,41,6.30
2016,03,09,01,42,4.90
2016,03,09,01,43,4.30
2016,03,09,01,44,4.80
2016,03,09,01,45,8.30
2016,03,09,01,46,10.60
2016,03,09,01,47,11.40
2016,03,09,01,48,8.50
2016,03,09,01,49,12.00
2016,03,09,01,50,7.80
2016,03,09,01,51,8.50
2016,03,09,01,52,10.40
2016,03,09,01,53,8.10
2016,03,09,01,54,5.50
2016,03,09,01,55,10.60
2016,03,09,01,56,12.70
2016,03,09,01,57,11.60
2016,03,09,01,58,7.40
2016,03,09,01,59,13.20
2016,03,09,02,00,10.60
2016,03,09,02,01,14.40
2016,03,09,02,02,9.50
2016,03,09,02,03,8.40
2016,03,09,02,04,6.60
2016,03,09,02,05,8.20
2016,03,09,02,06,12.30
2016,03,09,02,07,15.00
2016,03,09,02,08,16.10
2016,03,09,02,09,8.50
2016,03,09,02,10,13.90
2016,03,09,02,11,9.80
2016,03,09,02,12,11.50
2016,03,09,02,13,6.30
2016,03,09,02,14,9.40
2016,03,09,02,15,6.60
2016,03,09,02,16,8.30
2016,03,09,02,17,9.00
2016,03,09,02,18,6.80
2016,03,09,02,19,6.30
2016,03,09,02,20,8.30
2016,03,09,02,21,9.50
2016,03,09,02,22,7.30
2016,03,09,02,23,9.30
2016,03,09,02,24,7.20
2016,03,09,02,25,6.50
2016,03,09,02,26,7.20
2016,03,09,02,27,5.40
2016,03,09,02,28,5.50
2016,03,09,02,29,5.30
2016,03,09,02,30,5.80
2016,03,09,02,31,4.70
2016,03,09,02,32,5.60
2016,03,09,02,33,6.20
2016,03,09,02,34,2.70
2016,03,09,02,35,4.70
2016,03,09,02,36,3.40
2016,03,09,02,37,7.80
2016,03,09,02,38,9.80
2016,03,09,02,39,5.50
2016,03,09,02,40,4.30
2016,03,09,02,41,5.80
2016,03,09,02,42,7.00
2016,03,09,02,43,3.60
2016,03,09,02,44,9.00
2016,03,09,02,45,4.50
2016,03,09,02,46,4.80
2016,03,09,02,47,7.60
2016,03,09,02,48,4.60
2016,03,09,02,49,3.50
2016,03,09,02,50,5.10
2016,03,09,02,51,4.20
2016,03,09,02,52,6.80
2016,03,09,02,53,9.20
2016,03,09,02,54,6.10
2016,03,09,02,55,7.60
2016,03,09,02,56,10.10
2016,03,09,02,57,8.40
2016,03,09,02,58,9.20
2016,03,09,02,59,5.70
2016,03,09,03,00,3.30
2016,03,09,03,01,4.90
2016,03,09,03,02,7.00
2016,03,09,03,03,11.70
2016,03,09,03,04,5.20
2016,03,09,03,05,4.90
2016,03,09,03,06,4.90
2016,03,09,03,07,9.10
2016,03,09,03,08,6.90
2016,03,09,03,09,8.40
2016,03,09,03,10,7.00
2016,03,09,03,11,5.40
2016,03,09,03,12,8.50
2016,03,09,03,13,10.50
2016,03,09,03,14,10.20
2016,03,09,03,15,11.20
2016,03,09,03,16,11.60
2016,03,09,03,17,6.40
2016,03,09,03,18,9.10
2016,03,09,03,19,12.90
2016,03,09,03,20,6.80
2016,03,09,03,21,10.60
2016,03,09,03,22,16.20
2016,03,09,03,23,11.30
2016,03,09,03,24,19.60
2016,03,09,03,25,10.00
2016,03,09,03,26,8.80
2016,03,09,03,27,12.80
2016,03,09,03,28,9.10
2016,03,09,03,29,14.40
2016,03,09,03,30,11.20
2016,03,09,03,31,9.40
2016,03,09,03,32,16.90
2016,03,09,03,33,13.00
2016,03,09,03,34,8.00
2016,03,09,03,35,6.90
2016,03,09,03,36,5.80
2016,03,09,03,37,8.20
2016,03,09,03,38,13.20
2016,03,09,03,39,10.00
2016,03,09,03,40,11.00
2016,03,09,03,41,12.60
2016,03,09,03,42,10.40
2016,03,09,03,43,11.90
2016,03,09,03,44,14.70
2016,03,09,03,45,10.00
2016,03,09,03,46,7.50
2016,03,09,03,47,9.50
2016,03,09,03,48,9.80
2016,03,09,03,49,7.00
2016,03,09,03,50,8.90
2016,03,09,03,51,11.20
2016,03,09,03,52,8.60
2016,03,09,03,53,8.70
2016,03,09,03,54,9.50
2016,03,09,03,55,4.00
2016,03,09,03,56,6.20
2016,03,09,03,57,5.50
2016,03,09,03,58,3.90
2016,03,09,03,59,6.60
2016,03,09,04,00,5.90
2016,03,09,04,01,8.10
2016,03,09,04,02,9.50
2016,03,09,04,03,16.20
2016,03,09,04,04,9.70
2016,03,09,04,05,7.90
2016,03,09,04,06,8.60
2016,03,09,04,07,9.70
2016,03,09,04,08,7.00
2016,03,09,04,09,5.40
2016,03,09,04,10,12.20
2016,03,09,04,11,10.00
2016,03,09,04,12,9.80
2016,03,09,04,13,13.20
2016,03,09,04,14,11.30
2016,03,09,04,15,11.60
2016,03,09,04,16,7.00
2016,03,09,04,17,7.20
2016,03,09,04,18,7.60
2016,03,09,04,19,10.10
2016,03,09,04,20,12.20
2016,03,09,04,21,12.80
2016,03,09,04,22,8.10
2016,03,09,04,23,10.30
2016,03,09,04,24,16.60
2016,03,09,04,25,11.90
2016,03,09,04,26,12.20
2016,03,09,04,27,14.10
2016,03,09,04,28,6.90
2016,03,09,04,29,6.00
2016,03,09,04,30,4.30
2016,03,09,04,31,10.60
2016,03,09,04,32,15.30
2016,03,09,04,33,7.90
2016,03,09,04,34,11.50
2016,03,09,04,35,11.10
2016,03,09,04,36,17.20
2016,03,09,04,37,14.40
2016,03,09,04,38,11.00
2016,03,09,04,39,7.50
2016,03,09,04,40,13.30
2016,03,09,04,41,8.30
2016,03,09,04,42,15.60
2016,03,09,04,43,11.40
2016,03,09,04,44,15.70
2016,03,09,04,45,12.20
2016,03,09,04,46,9.80
2016,03,09,04,47,12.80
2016,03,09,04,48,20.00
2016,03,09,04,49,12.90
2016,03,09,04,50,11.10
2016,03,09,04,51,9.70
2016,03,09,04,52,14.30
2016,03,09,04,53,17.40
2016,03,09,04,54,12.60
2016,03,09,04,55,16.20
2016,03,09,04,56,23.50
2016,03,09,04,57,9.40
2016,03,09,04,58,9.10
2016,03,09,04,59,9.10
2016,03,09,05,00,15.30
2016,03,09,05,01,10.40
2016,03,09,05,02,14.20
2016,03,09,05,03,13.20
2016,03,09,05,04,12.20
2016,03,09,05,05,11.00
2016,03,09,05,06,9.50
2016,03,09,05,07,15.30
2016,03,09,05,08,9.20
2016,03,09,05,09,6.30
2016,03,09,05,10,15.20
2016,03,09,05,11,13.90
2016,03,09,05,12,12.00
2016,03,09,05,13,17.60
2016,03,09,05,14,19.10
2016,03,09,05,15,9.70
2016,03,09,05,16,13.20
2016,03,09,05,17,14.10
2016,03,09,05,18,7.50
2016,03,09,05,19,8.80
2016,03,09,05,20,12.00
2016,03,09,05,21,11.30
2016,03,09,05,22,13.50
2016,03,09,05,23,14.80
2016,03,09,05,24,17.30
2016,03,09,05,25,17.60
2016,03,09,05,26,18.80
2016,03,09,05,27,19.90
2016,03,09,05,28,16.50
2016,03,09,05,29,21.50
2016,03,09,05,30,14.40
2016,03,09,05,31,12.90
2016,03,09,05,32,24.20
2016,03,09,05,33,17.90
2016,03,09,05,34,18.70
2016,03,09,05,35,13.90
2016,03,09,05,36,14.10
2016,03,09,05,37,15.10
2016,03,09,05,38,10.90
2016,03,09,05,39,21.40
2016,03,09,05,40,14.00
2016,03,09,05,41,15.80
2016,03,09,05,42,8.70
2016,03,09,05,43,8.00
2016,03,09,05,44,15.10
2016,03,09,05,45,17.50
2016,03,09,05,46,11.20
2016,03,09,05,47,12.20
2016,03,09,05,48,9.20
2016,03,09,05,49,9.40
2016,03,09,05,50,13.30
2016,03,09,05,51,8.70
2016,03,09,05,52,13.00
2016,03,09,05,53,10.40
2016,03,09,05,54,12.70
2016,03,09,05,55,10.40
2016,03,09,05,56,10.70
2016,03,09,05,57,8.00
2016,03,09,05,58,14.50
2016,03,09,05,59,14.10
2016,03,09,06,00,21.80
2016,03,09,06,01,25.50
2016,03,09,06,02,19.70
2016,03,09,06,03,18.80
2016,03,09,06,04,10.50
2016,03,09,06,05,11.20
2016,03,09,06,06,13.50
2016,03,09,06,07,9.70
2016,03,09,06,08,9.70
2016,03,09,06,09,23.70
2016,03,09,06,10,18.90
2016,03,09,06,11,16.70
2016,03,09,06,12,14.80
2016,03,09,06,13,13.50
2016,03,09,06,14,21.30
2016,03,09,06,15,16.20
2016,03,09,06,16,11.70
2016,03,09,06,17,14.20
2016,03,09,06,18,14.20
2016,03,09,06,19,11.80
2016,03,09,06,20,14.40
2016,03,09,06,21,11.10
2016,03,09,06,22,11.40
2016,03,09,06,23,19.10
2016,03,09,06,24,14.60
2016,03,09,06,25,12.50
2016,03,09,06,26,18.50
2016,03,09,06,27,11.10
2016,03,09,06,28,7.80
2016,03,09,06,29,9.10
2016,03,09,06,30,6.70
2016,03,09,06,31,6.90
2016,03,09,06,32,13.80
2016,03,09,06,33,13.50
2016,03,09,06,34,18.20
2016,03,09,06,35,14.90
2016,03,09,06,36,16.80
2016,03,09,06,37,10.70
2016,03,09,06,38,6.70
2016,03,09,06,39,13.90
2016,03,09,06,40,15.30
2016,03,09,06,41,19.30
2016,03,09,06,42,17.00
2016,03,09,06,43,12.80
2016,03,09,06,44,6.70
2016,03,09,06,45,13.00
2016,03,09,06,46,14.80
2016,03,09,06,47,16.40
2016,03,09,06,48,17.30
2016,03,09,06,49,14.70
2016,03,09,06,50,16.60
2016,03,09,06,51,14.50
2016,03,09,06,52,16.80
2016,03,09,06,53,16.10
2016,03,09,06,54,13.70
2016,03,09,06,55,18.80
2016,03,09,06,56,12.70
2016,03,09,06,57,17.30
2016,03,09,06,58,11.60
2016,03,09,06,59,15.30
2016,03,09,07,00,16.10
2016,03,09,07,01,13.20
2016,03,09,07,02,7.50
2016,03,09,07,03,10.60
2016,03,09,07,04,10.20
2016,03,09,07,05,16.70
2016,03,09,07,06,17.50
2016,03,09,07,07,18.70
2016,03,09,07,08,15.10
2016,03,09,07,09,11.10
2016,03,09,07,10,12.50
2016,03,09,07,11,12.50
2016,03,09,07,12,14.50
2016,03,09,07,13,11.20
2016,03,09,07,14,9.80
2016,03,09,07,15,9.50
2016,03,09,07,16,9.40
2016,03,09,07,17,13.50
2016,03,09,07,18,10.90
2016,03,09,07,19,13.30
2016,03,09,07,20,19.20
2016,03,09,07,21,18.30
2016,03,09,07,22,19.50
2016,03,09,07,23,15.10
2016,03,09,07,24,7.20
2016,03,09,07,25,16.20
2016,03,09,07,26,15.40
2016,03,09,07,27,7.30
2016,03,09,07,28,9.70
2016,03,09,07,29,18.50
2016,03,09,07,30,12.90
2016,03,09,07,31,13.60
2016,03,09,07,32,11.40
2016,03,09,07,33,7.80
2016,03,09,07,34,8.00
2016,03,09,07,35,18.40
2016,03,09,07,36,21.80
2016,03,09,07,37,15.10
2016,03,09,07,38,18.70
2016,03,09,07,39,19.00
2016,03,09,07,40,14.50
2016,03,09,07,41,14.40
2016,03,09,07,42,21.00
2016,03,09,07,43,17.20
2016,03,09,07,44,12.30
2016,03,09,07,45,17.20
2016,03,09,07,46,14.80
2016,03,09,07,47,15.60
2016,03,09,07,48,16.30
2016,03,09,07,49,21.50
2016,03,09,07,50,19.30
2016,03,09,07,51,16.50
2016,03,09,07,52,14.90
2016,03,09,07,53,17.60
2016,03,09,07,54,18.50
2016,03,09,07,55,8.90
2016,03,09,07,56,16.10
2016,03,09,07,57,19.10
2016,03,09,07,58,15.60
2016,03,09,07,59,8.90
2016,03,09,08,00,13.50
2016,03,09,08,01,13.30
2016,03,09,08,02,10.20
2016,03,09,08,03,9.80
2016,03,09,08,04,11.60
2016,03,09,08,05,16.50
2016,03,09,08,06,17.50
2016,03,09,08,07,17.50
2016,03,09,08,08,17.20
2016,03,09,08,09,15.90
2016,03,09,08,10,14.50
2016,03,09,08,11,16.70
2016,03,09,08,12,15.40
2016,03,09,08,13,10.70
2016,03,09,08,14,17.80
2016,03,09,08,15,12.30
2016,03,09,08,16,11.20
2016,03,09,08,17,9.80
2016,03,09,08,18,9.10
2016,03,09,08,19,14.70
2016,03,09,08,20,9.30
2016,03,09,08,21,14.20
2016,03,09,08,22,8.50
2016,03,09,08,23,9.10
2016,03,09,08,24,15.50
2016,03,09,08,25,12.30
2016,03,09,08,26,13.60
2016,03,09,08,27,14.00
2016,03,09,08,28,11.00
2016,03,09,08,29,13.70
2016,03,09,08,30,15.50
2016,03,09,08,31,15.10
2016,03,09,08,32,13.70
2016,03,09,08,33,10.80
2016,03,09,08,34,15.00
2016,03,09,08,35,10.50
2016,03,09,08,36,14.10
2016,03,09,08,37,11.50
2016,03,09,08,38,10.50
2016,03,09,08,39,9.20
2016,03,09,08,40,12.30
2016,03,09,08,41,15.10
2016,03,09,08,42,17.00
2016,03,09,08,43,8.90
2016,03,09,08,44,8.00
2016,03,09,08,45,7.50
2016,03,09,08,46,10.00
2016,03,09,08,47,18.40
2016,03,09,08,48,14.80
2016,03,09,08,49,17.80
2016,03,09,08,50,18.50
2016,03,09,08,51,18.00
2016,03,09,08,52,21.30
2016,03,09,08,53,19.70
2016,03,09,08,54,13.90
2016,03,09,08,55,24.90
2016,03,09,08,56,10.40
2016,03,09,08,57,14.00
2016,03,09,08,58,23.80
2016,03,09,08,59,22.10
2016,03,09,09,00,17.90
2016,03,09,09,01,21.30
2016,03,09,09,02,14.50
2016,03,09,09,03,10.80
2016,03,09,09,04,14.40
2016,03,09,09,05,11.00
2016,03,09,09,06,15.90
2016,03,09,09,07,13.90
2016,03,09,09,08,11.60
2016,03,09,09,09,9.10
2016,03,09,09,10,18.40
2016,03,09,09,11,22.40
2016,03,09,09,12,24.90
2016,03,09,09,13,16.60
2016,03,09,09,14,18.90
2016,03,09,09,15,19.40
2016,03,09,09,16,16.60
2016,03,09,09,17,15.90
2016,03,09,09,18,14.60
2016,03,09,09,19,16.50
2016,03,09,09,20,13.90
2016,03,09,09,21,14.10
2016,03,09,09,22,9.50
2016,03,09,09,23,9.50
2016,03,09,09,24,9.50
2016,03,09,09,25,17.80
2016,03,09,09,26,19.60
2016,03,09,09,27,19.80
2016,03,09,09,28,15.20
2016,03,09,09,29,18.50
2016,03,09,09,30,12.50
2016,03,09,09,31,21.60
2016,03,09,09,32,23.70
2016,03,09,09,33,14.70
2016,03,09,09,34,11.00
2016,03,09,09,35,15.50
2016,03,09,09,36,14.40
2016,03,09,09,37,15.30
2016,03,09,09,38,22.70
2016,03,09,09,39,23.20
2016,03,09,09,40,13.80
2016,03,09,09,41,21.60
2016,03,09,09,42,15.10
2016,03,09,09,43,12.80
2016,03,09,09,44,12.80
2016,03,09,09,45,12.20
2016,03,09,09,46,17.60
2016,03,09,09,47,16.90
2016,03,09,09,48,16.50
2016,03,09,09,49,22.50
2016,03,09,09,50,14.60
2016,03,09,09,51,11.90
2016,03,09,09,52,14.60
2016,03,09,09,53,16.60
2016,03,09,09,54,17.40
2016,03,09,09,55,21.90
2016,03,09,09,56,22.10
2016,03,09,09,57,24.30
2016,03,09,09,58,27.40
2016,03,09,09,59,28.10
2016,03,09,10,00,24.40
2016,03,09,10,01,17.70
2016,03,09,10,02,22.50
2016,03,09,10,03,19.30
2016,03,09,10,04,12.70
2016,03,09,10,05,17.70
2016,03,09,10,06,17.40
2016,03,09,10,07,21.60
2016,03,09,10,08,18.70
2016,03,09,10,09,14.10
2016,03,09,10,10,21.60
2016,03,09,10,11,13.80
2016,03,09,10,12,17.20
2016,03,09,10,13,17.10
2016,03,09,10,14,19.20
2016,03,09,10,15,23.10
2016,03,09,10,16,14.50
2016,03,09,10,17,20.30
2016,03,09,10,18,13.90
2016,03,09,10,19,18.10
2016,03,09,10,20,14.50
2016,03,09,10,21,12.50
2016,03,09,10,22,11.80
2016,03,09,10,23,15.70
2016,03,09,10,24,9.20
2016,03,09,10,25,14.10
2016,03,09,10,26,14.50
2016,03,09,10,27,15.60
2016,03,09,10,28,27.50
2016,03,09,10,29,17.90
2016,03,09,10,30,16.20
2016,03,09,10,31,23.50
2016,03,09,10,32,21.60
2016,03,09,10,33,19.00
2016,03,09,10,34,18.40
2016,03,09,10,35,23.80
2016,03,09,10,36,21.50
2016,03,09,10,37,27.70
2016,03,09,10,38,17.90
2016,03,09,10,39,26.00
2016,03,09,10,40,12.50
2016,03,09,10,41,27.40
2016,03,09,10,42,23.20
2016,03,09,10,43,22.50
2016,03,09,10,44,17.10
2016,03,09,10,45,14.80
2016,03,09,10,46,28.30
2016,03,09,10,47,21.30
2016,03,09,10,48,21.90
2016,03,09,10,49,20.10
2016,03,09,10,50,17.20
2016,03,09,10,51,21.30
2016,03,09,10,52,17.30
2016,03,09,10,53,26.50
2016,03,09,10,54,20.70
2016,03,09,10,55,26.40
2016,03,09,10,56,28.20
2016,03,09,10,57,20.60
2016,03,09,10,58,25.80
2016,03,09,10,59,22.20
2016,03,09,11,00,16.90
2016,03,09,11,01,19.30
2016,03,09,11,02,17.90
2016,03,09,11,03,27.10
2016,03,09,11,04,18.90
2016,03,09,11,05,15.00
2016,03,09,11,06,27.50
2016,03,09,11,07,22.10
2016,03,09,11,08,22.50
2016,03,09,11,09,22.20
2016,03,09,11,10,23.30
2016,03,09,11,11,13.80
2016,03,09,11,12,20.00
2016,03,09,11,13,23.90
2016,03,09,11,14,19.10
2016,03,09,11,15,20.60
2016,03,09,11,16,20.50
2016,03,09,11,17,23.10
2016,03,09,11,18,20.00
2016,03,09,11,19,16.30
2016,03,09,11,20,25.50
2016,03,09,11,21,20.10
2016,03,09,11,22,18.30
2016,03,09,11,23,19.80
2016,03,09,11,24,19.20
2016,03,09,11,25,15.50
2016,03,09,11,26,15.50
2016,03,09,11,27,22.80
2016,03,09,11,28,23.70
2016,03,09,11,29,19.10
2016,03,09,11,30,21.30
2016,03,09,11,31,17.60
2016,03,09,11,32,23.20
2016,03,09,11,33,17.80
2016,03,09,11,34,15.40
2016,03,09,11,35,19.40
2016,03,09,11,36,14.40
2016,03,09,11,37,14.60
2016,03,09,11,38,10.40
2016,03,09,11,39,10.00
2016,03,09,11,40,11.00
2016,03,09,11,41,15.60
2016,03,09,11,42,19.30
2016,03,09,11,43,16.20
2016,03,09,11,44,9.20
2016,03,09,11,45,14.70
2016,03,09,11,46,20.90
2016,03,09,11,47,18.50
2016,03,09,11,48,16.30
2016,03,09,11,49,13.20
2016,03,09,11,50,14.10
2016,03,09,11,51,14.10
2016,03,09,11,52,18.20
2016,03,09,11,53,18.50
2016,03,09,11,54,16.40
2016,03,09,11,55,10.60
2016,03,09,11,56,17.90
2016,03,09,11,57,19.10
2016,03,09,11,58,16.60
2016,03,09,11,59,20.30
2016,03,09,12,00,19.40
2016,03,09,12,01,10.10
2016,03,09,12,02,15.30
2016,03,09,12,03,13.40
2016,03,09,12,04,19.60
2016,03,09,12,05,14.50
2016,03,09,12,06,9.70
2016,03,09,12,07,9.10
2016,03,09,12,08,18.20
2016,03,09,12,09,21.20
2016,03,09,12,10,12.80
2016,03,09,12,11,13.40
2016,03,09,12,12,6.40
2016,03,09,12,13,10.80
2016,03,09,12,14,12.60
2016,03,09,12,15,14.00
2016,03,09,12,16,24.10
2016,03,09,12,17,16.20
2016,03,09,12,18,15.90
2016,03,09,12,19,10.40
2016,03,09,12,20,14.90
2016,03,09,12,21,7.90
2016,03,09,12,22,9.60
2016,03,09,12,23,9.60
2016,03,09,12,24,9.60
2016,03,09,12,25,8.70
2016,03,09,12,26,6.60
2016,03,09,12,27,12.50
2016,03,09,12,28,21.00
2016,03,09,12,29,8.00
2016,03,09,12,30,11.50
2016,03,09,12,31,11.30
2016,03,09,12,32,10.80
2016,03,09,12,33,16.60
2016,03,09,12,34,17.60
2016,03,09,12,35,10.40
2016,03,09,12,36,14.10
2016,03,09,12,37,10.60
2016,03,09,12,38,8.20
2016,03,09,12,39,10.60
2016,03,09,12,40,13.80
2016,03,09,12,41,19.80
2016,03,09,12,42,13.30
2016,03,09,12,43,9.30
2016,03,09,12,44,8.60
2016,03,09,12,45,9.40
2016,03,09,12,46,11.00
2016,03,09,12,47,6.10
2016,03,09,12,48,7.30
2016,03,09,12,49,6.70
2016,03,09,12,50,13.50
2016,03,09,12,51,9.20
2016,03,09,12,52,6.10
2016,03,09,12,53,9.70
2016,03,09,12,54,8.40
2016,03,09,12,55,7.80
2016,03,09,12,56,11.60
2016,03,09,12,57,7.10
2016,03,09,12,58,7.80
2016,03,09,12,59,7.10
2016,03,09,13,00,3.90
2016,03,09,13,01,5.30
2016,03,09,13,02,5.70
2016,03,09,13,03,4.70
2016,03,09,13,04,8.20
2016,03,09,13,05,8.10
2016,03,09,13,06,14.00
2016,03,09,13,07,8.80
2016,03,09,13,08,3.90
2016,03,09,13,09,5.30
2016,03,09,13,10,2.00
2016,03,09,13,11,5.80
2016,03,09,13,12,5.20
2016,03,09,13,13,5.00
2016,03,09,13,14,4.60
2016,03,09,13,15,6.30
2016,03,09,13,16,7.60
2016,03,09,13,17,4.80
2016,03,09,13,18,3.30
2016,03,09,13,19,2.70
2016,03,09,13,20,1.40
2016,03,09,13,21,1.10
2016,03,09,13,22,2.80
2016,03,09,13,23,4.90
2016,03,09,13,24,3.50
2016,03,09,13,25,4.50
2016,03,09,13,26,6.30
2016,03,09,13,27,5.00
2016,03,09,13,28,5.50
2016,03,09,13,29,5.90
2016,03,09,13,30,6.10
2016,03,09,13,31,2.10
2016,03,09,13,32,3.20
2016,03,09,13,33,3.00
2016,03,09,13,34,6.90
2016,03,09,13,35,9.30
2016,03,09,13,36,5.50
2016,03,09,13,37,3.60
2016,03,09,13,38,3.80
2016,03,09,13,39,4.50
2016,03,09,13,40,1.40
2016,03,09,13,41,3.50
2016,03,09,13,42,3.70
2016,03,09,13,43,4.20
2016,03,09,13,44,1.10
2016,03,09,13,45,4.30
2016,03,09,13,46,8.20
2016,03,09,13,47,9.60
2016,03,09,13,48,5.80
2016,03,09,13,49,3.40
2016,03,09,13,50,6.20
2016,03,09,13,51,8.90
2016,03,09,13,52,8.40
2016,03,09,13,53,4.20
2016,03,09,13,54,9.40
2016,03,09,13,55,7.90
2016,03,09,13,56,4.50
2016,03,09,13,57,2.60
2016,03,09,13,58,4.50
2016,03,09,13,59,4.00
2016,03,09,14,00,3.70
2016,03,09,14,01,8.30
2016,03,09,14,02,5.80
2016,03,09,14,03,6.60
2016,03,09,14,04,1.50
2016,03,09,14,05,2.30
2016,03,09,14,06,2.00
2016,03,09,14,07,8.60
2016,03,09,14,08,5.70
2016,03,09,14,09,4.60
2016,03,09,14,10,2.80
2016,03,09,14,11,2.40
2016,03,09,14,12,2.40
2016,03,09,14,13,2.60
2016,03,09,14,14,3.00
2016,03,09,14,15,3.10
2016,03,09,14,16,4.60
2016,03,09,14,17,5.20
2016,03,09,14,18,2.70
2016,03,09,14,19,2.90
2016,03,09,14,20,3.10
2016,03,09,14,21,2.30
2016,03,09,14,22,4.80
2016,03,09,14,23,1.70
2016,03,09,14,24,3.80
2016,03,09,14,25,1.30
2016,03,09,14,26,1.40
2016,03,09,14,27,2.70
2016,03,09,14,28,2.70
2016,03,09,14,29,1.10
2016,03,09,14,30,8.80
2016,03,09,14,31,4.70
2016,03,09,14,32,3.40
2016,03,09,14,33,2.80
2016,03,09,14,34,5.40
2016,03,09,14,35,3.10
2016,03,09,14,36,3.60
2016,03,09,14,37,4.00
2016,03,09,14,38,4.50
2016,03,09,14,39,0.80
2016,03,09,14,40,0.00
2016,03,09,14,41,2.90
2016,03,09,14,42,2.70
2016,03,09,14,43,2.90
2016,03,09,14,44,6.30
2016,03,09,14,45,8.20
2016,03,09,14,46,3.00
2016,03,09,14,47,1.90
2016,03,09,14,48,3.00
2016,03,09,14,49,3.10
2016,03,09,14,50,6.10
2016,03,09,14,51,4.90
2016,03,09,14,52,6.70
2016,03,09,14,53,2.70
2016,03,09,14,54,7.10
2016,03,09,14,55,10.10
2016,03,09,14,56,4.90
2016,03,09,14,57,3.70
2016,03,09,14,58,6.30
2016,03,09,14,59,3.80
2016,03,09,15,00,4.50
2016,03,09,15,01,5.10
2016,03,09,15,02,6.60
2016,03,09,15,03,4.40
2016,03,09,15,04,2.30
2016,03,09,15,05,6.80
2016,03,09,15,06,4.80
2016,03,09,15,07,4.80
2016,03,09,15,08,5.30
2016,03,09,15,09,3.50
2016,03,09,15,10,6.10
2016,03,09,15,11,7.50
2016,03,09,15,12,2.90
2016,03,09,15,13,4.40
2016,03,09,15,14,5.50
2016,03,09,15,15,10.70
2016,03,09,15,16,8.20
2016,03,09,15,17,3.30
2016,03,09,15,18,3.10
2016,03,09,15,19,1.90
2016,03,09,15,20,4.30
2016,03,09,15,21,3.40
2016,03,09,15,22,6.00
2016,03,09,15,23,6.40
2016,03,09,15,24,6.60
2016,03,09,15,25,4.60
2016,03,09,15,26,5.80
2016,03,09,15,27,7.70
2016,03,09,15,28,7.60
2016,03,09,15,29,8.10
2016,03,09,15,30,2.70
2016,03,09,15,31,5.90
2016,03,09,15,32,4.40
2016,03,09,15,33,4.50
2016,03,09,15,34,2.00
2016,03,09,15,35,7.10
2016,03,09,15,36,5.20
2016,03,09,15,37,3.60
2016,03,09,15,38,5.90
2016,03,09,15,39,7.10
2016,03,09,15,40,4.50
2016,03,09,15,41,4.40
2016,03,09,15,42,4.60
2016,03,09,15,43,8.50
2016,03,09,15,44,6.00
2016,03,09,15,45,4.20
2016,03,09,15,46,3.40
2016,03,09,15,47,2.70
2016,03,09,15,48,8.00
2016,03,09,15,49,4.50
2016,03,09,15,50,3.20
2016,03,09,15,51,2.70
2016,03,09,15,52,8.20
2016,03,09,15,53,5.50
2016,03,09,15,54,10.00
2016,03,09,15,55,13.80
2016,03,09,15,56,17.70
2016,03,09,15,57,14.70
2016,03,09,15,58,12.90
2016,03,09,15,59,12.40
2016,03,09,16,00,17.60
2016,03,09,16,01,13.60
2016,03,09,16,02,13.90
2016,03,09,16,03,8.60
2016,03,09,16,04,9.80
2016,03,09,16,05,13.70
2016,03,09,16,06,12.50
2016,03,09,16,07,19.10
2016,03,09,16,08,17.70
2016,03,09,16,09,20.00
2016,03,09,16,10,18.80
2016,03,09,16,11,15.00
2016,03,09,16,12,12.60
2016,03,09,16,13,16.00
2016,03,09,16,14,24.90
2016,03,09,16,15,16.20
2016,03,09,16,16,22.20
2016,03,09,16,17,19.60
2016,03,09,16,18,8.00
2016,03,09,16,19,22.30
2016,03,09,16,20,16.80
2016,03,09,16,21,14.10
2016,03,09,16,22,9.70
2016,03,09,16,23,11.70
2016,03,09,16,24,19.80
2016,03,09,16,25,15.00
2016,03,09,16,26,12.10
2016,03,09,16,27,20.90
2016,03,09,16,28,20.20
2016,03,09,16,29,8.90
2016,03,09,16,30,6.60
2016,03,09,16,31,14.30
2016,03,09,16,32,10.10
2016,03,09,16,33,12.00
2016,03,09,16,34,21.20
2016,03,09,16,35,19.70
2016,03,09,16,36,10.80
2016,03,09,16,37,18.10
2016,03,09,16,38,17.30
2016,03,09,16,39,25.30
2016,03,09,16,40,15.20
2016,03,09,16,41,21.70
2016,03,09,16,42,15.90
2016,03,09,16,43,24.40
2016,03,09,16,44,21.00
2016,03,09,16,45,19.90
2016,03,09,16,46,15.50
2016,03,09,16,47,17.10
2016,03,09,16,48,14.70
2016,03,09,16,49,10.80
2016,03,09,16,50,14.80
2016,03,09,16,51,14.70
2016,03,09,16,52,8.90
2016,03,09,16,53,8.50
2016,03,09,16,54,18.20
2016,03,09,16,55,11.30
2016,03,09,16,56,5.40
2016,03,09,16,57,10.00
2016,03,09,16,58,14.90
2016,03,09,16,59,20.30
2016,03,09,17,00,11.60
2016,03,09,17,01,27.10
2016,03,09,17,02,24.50
2016,03,09,17,03,13.20
2016,03,09,17,04,18.20
2016,03,09,17,05,20.00
2016,03,09,17,06,25.30
2016,03,09,17,07,19.70
2016,03,09,17,08,18.60
2016,03,09,17,09,29.40
2016,03,09,17,10,21.00
2016,03,09,17,11,16.70
2016,03,09,17,12,26.50
2016,03,09,17,13,25.90
2016,03,09,17,14,17.30
2016,03,09,17,15,30.80
2016,03,09,17,16,26.00
2016,03,09,17,17,22.00
2016,03,09,17,18,27.20
2016,03,09,17,19,19.70
2016,03,09,17,20,22.90
2016,03,09,17,21,17.10
2016,03,09,17,22,31.00
2016,03,09,17,23,20.90
2016,03,09,17,24,32.80
2016,03,09,17,25,19.70
2016,03,09,17,26,9.20
2016,03,09,17,27,17.00
2016,03,09,17,28,17.30
2016,03,09,17,29,15.40
2016,03,09,17,30,15.10
2016,03,09,17,31,13.40
2016,03,09,17,32,21.90
2016,03,09,17,33,14.10
2016,03,09,17,34,8.80
2016,03,09,17,35,12.50
2016,03,09,17,36,9.40
2016,03,09,17,37,12.90
2016,03,09,17,38,12.30
2016,03,09,17,39,14.70